Location: Newark
(52.4787°S, 179.0532°W)
Time: 05:15:33
(UTC+00:00)

ISS - Pass Details

Date: 28 October 2019
Orbit: 412 x 421 km, 51.6° (Epoch: 22 November)

Event Time Altitude Azimuth Distance (km) Brightness Sun altitude
Rises 10:16:38 0° 259° (W) 2,386 0.5 -22.0°
Reaches altitude 10° 10:19:03 10° 275° (W) 1,518 -0.7 -22.1°
Enters shadow 10:19:41 13° 282° (WNW) 1,328 -1.1 -22.2°
